Welcome, Guest. Please login or register.
Did you miss your activation email?

Username: Password:
Outdoor Wood Furnace Info - Statistics Center
General Statistics
Total Members: 8226
Total Posts: 77372
Total Topics: 7281
Total Categories: 6
Users Online: 15
Most Online: 181 - December 12, 2018, 12:30:02 AM
Online Today: 22
Average registrations per day: 7.94
Average posts per day: 21.56
Average topics per day: 2.49
Total Boards: 50
Latest Member: ckhoppe
Average online per day: 25.35
Male to Female Ratio: 89.9:1
Top 10 Posters Top 10 Boards
mlappin 3928
Scott7m 3740
RSI 2953
willieG 1852
Roger2561 1673
hondaracer2oo4 1424
coolidge 1404
atvalaska 1281
MattyNH 1278
caper 1182
General Outdoor Furnace Discussion 30564
Plumbing 7518
Central Boiler 4789
General Discussion 4396
HeatMaster 4040
Portage & Main 3696
Fire Wood 3257
Home Made 2488
Equipment 2290
Electronics 2214
Top 10 Topics (by Replies) Top 10 Topics (by Views)
new heatmor and having huge issues 491
our wood stoves are horrible but epa thinks this is fine 344
Gasification wood boiler build 303
Almost 172
Wood Consumption vs. Application 144
TYPE of CHAIN SAWS USED 138
ProFab has some issues! 130
Ridgewood stoves 124
Global warming, climate change? Article 124
I'm impressed 123
Synergy Boilers? 581350
HELP! I hate my SHAVER! 468824
TAKE A STAND AGAINST MIDWEST (SYNERGY) BOILERS 450075
Synergy Boilers 98716
Gasification wood boiler build 62910
new heatmor and having huge issues 37789
Truth about Wood Doctor by president 32277
Suggested Water Temperature on Boiler 29323
My homemade/modified forced air wood furnace 28772
Used Hardy Stove info 25035
Top Topic Starters Most Time Online
coolidge 334
Roger2561 227
mlappin 109
slimjim 107
Scott7m 102
d5knapp 93
userdk 71
AirForcePOL 66
hondaracer2oo4 60
heat550 57
slimjim 90d 18h 56m
willieG 89d 16h 0m
RSI 48d 7h 26m
mlappin 37d 16h 42m
Scott7m 35d 21h 14m
koutsman 29d 22h 0m
MD20/20 27d 2h 40m
sceptre74 25d 4h 55m
CountryBoyJohn 21d 8h 26m
Roger2561 21d 2h 27m
Forum History (using forum time offset)
Yearly Summary New Topics New Posts New Members Most Online
* 2018 310 3269 7385 181
* 2017 597 7391 3268 65
December 2017 70 940 259 42
November 2017 77 940 272 40
October 2017 66 673 305 48
September 2017 40 581 253 42
August 2017 50 619 275 31
July 2017 16 164 329 33
June 2017 28 227 264 54
May 2017 30 407 291 45
April 2017 40 748 290 60
March 2017 46 601 306 49
2017-03-01 2 22 17 22
2017-03-02 2 14 16 22
2017-03-03 1 33 11 48
2017-03-04 5 48 10 26
2017-03-05 0 27 13 26
2017-03-06 5 41 10 21
2017-03-07 1 27 10 23
2017-03-08 4 37 10 27
2017-03-09 1 18 14 27
2017-03-10 1 17 11 49
2017-03-11 0 25 8 22
2017-03-12 3 10 8 25
2017-03-13 2 19 2 22
2017-03-14 1 20 8 21
2017-03-15 1 28 7 21
2017-03-16 2 21 13 30
2017-03-17 1 17 10 32
2017-03-18 0 16 7 34
2017-03-19 1 15 9 25
2017-03-20 0 5 10 28
2017-03-21 0 1 8 28
2017-03-22 2 16 6 46
2017-03-23 0 15 10 24
2017-03-24 2 18 6 46
2017-03-25 2 25 3 20
2017-03-26 2 12 9 31
2017-03-27 2 21 14 32
2017-03-28 2 11 9 21
2017-03-29 0 14 19 30
2017-03-30 0 3 8 23
2017-03-31 1 5 10 43
February 2017 43 569 241 65
January 2017 91 922 183 53
* 2016 546 5025 3090 75
December 2016 75 786 262 49
November 2016 55 512 251 75
October 2016 50 389 217 39
September 2016 43 244 237 27
August 2016 20 105 129 44
2016-08-01 1 5 5 29
2016-08-02 0 1 2 26
2016-08-03 0 7 1 24
2016-08-04 4 9 4 19
2016-08-05 0 12 4 19
2016-08-06 0 3 3 17
2016-08-07 0 0 4 21
2016-08-08 0 0 2 18
2016-08-09 0 0 2 44
2016-08-10 0 0 5 24
2016-08-11 0 0 6 21
2016-08-12 0 0 3 16
2016-08-13 1 5 1 16
2016-08-14 1 5 0 18
2016-08-15 0 2 1 18
2016-08-16 1 3 2 20
2016-08-17 0 0 4 18
2016-08-18 0 2 5 33
2016-08-19 0 1 4 29
2016-08-20 1 1 5 21
2016-08-21 1 1 3 18
2016-08-22 1 3 12 19
2016-08-23 1 4 4 19
2016-08-24 2 4 4 37
2016-08-25 0 3 7 18
2016-08-26 2 8 5 16
2016-08-27 1 6 7 24
2016-08-28 2 7 5 18
2016-08-29 1 5 10 16
2016-08-30 0 3 3 18
2016-08-31 0 5 6 19
July 2016 14 75 126 53
June 2016 11 86 151 49
May 2016 22 164 179 39
April 2016 22 222 548 51
2016-04-01 2 8 41 33
2016-04-02 2 9 26 50
2016-04-03 1 9 57 47
2016-04-04 3 16 31 51
2016-04-05 1 9 36 25
2016-04-06 1 4 56 28
2016-04-07 1 9 40 33
2016-04-08 1 32 45 29
2016-04-09 0 9 28 24
2016-04-10 0 11 42 24
2016-04-11 1 11 32 30
2016-04-12 0 5 11 40
2016-04-13 1 9 6 24
2016-04-14 0 9 10 22
2016-04-15 0 7 10 25
2016-04-16 1 4 4 36
2016-04-17 2 4 3 28
2016-04-18 0 5 11 23
2016-04-19 1 6 4 28
2016-04-20 2 12 3 28
2016-04-21 0 6 8 27
2016-04-22 0 2 3 25
2016-04-23 2 6 3 23
2016-04-24 0 4 5 22
2016-04-25 0 4 5 21
2016-04-26 0 3 8 21
2016-04-27 0 0 6 26
2016-04-28 0 3 4 25
2016-04-29 0 2 4 24
2016-04-30 0 4 6 21
March 2016 43 454 576 68
February 2016 74 806 123 58
January 2016 117 1182 291 52
* 2015 1317 11279 9513 67
December 2015 106 910 2179 40
November 2015 236 968 2620 60
October 2015 169 843 906 46
September 2015 42 202 593 35
August 2015 49 274 447 41
July 2015 35 353 449 53
June 2015 32 269 266 42
2015-06-01 2 12 8 31
2015-06-02 2 26 11 27
2015-06-03 2 12 15 31
2015-06-04 2 11 8 29
2015-06-05 0 2 16 29
2015-06-06 0 4 9 28
2015-06-07 0 6 11 39
2015-06-08 0 2 8 30
2015-06-09 0 2 8 30
2015-06-10 1 5 9 31
2015-06-11 4 51 3 30
2015-06-12 1 4 5 30
2015-06-13 3 14 8 29
2015-06-14 2 15 5 42
2015-06-15 0 20 11 27
2015-06-16 4 17 12 31
2015-06-17 3 21 9 29
2015-06-18 0 6 11 24
2015-06-19 1 2 2 20
2015-06-20 1 3 7 29
2015-06-21 0 1 6 20
2015-06-22 0 3 4 19
2015-06-23 0 5 11 22
2015-06-24 1 8 11 20
2015-06-25 0 0 8 30
2015-06-26 0 3 12 22
2015-06-27 0 3 13 23
2015-06-28 1 3 10 20
2015-06-29 1 2 8 20
2015-06-30 1 6 7 24
May 2015 66 519 364 46
April 2015 92 795 418 39
March 2015 113 1670 400 46
February 2015 175 2072 445 56
January 2015 202 2404 426 67
2015-01-01 10 82 8 62
2015-01-02 5 89 8 51
2015-01-03 11 111 5 42
2015-01-04 7 49 7 48
2015-01-05 9 124 12 49
2015-01-06 11 127 12 49
2015-01-07 12 118 10 56
2015-01-08 10 123 8 47
2015-01-09 9 63 10 43
2015-01-10 7 65 14 45
2015-01-11 3 63 11 45
2015-01-12 11 96 13 44
2015-01-13 5 86 17 45
2015-01-14 2 74 16 46
2015-01-15 6 53 16 46
2015-01-16 10 115 14 60
2015-01-17 5 32 12 40
2015-01-18 8 62 14 41
2015-01-19 5 65 17 43
2015-01-20 4 53 21 42
2015-01-21 0 48 19 37
2015-01-22 6 90 17 45
2015-01-23 4 62 31 49
2015-01-24 3 41 17 48
2015-01-25 6 64 19 46
2015-01-26 6 66 13 47
2015-01-27 10 88 18 47
2015-01-28 3 85 10 49
2015-01-29 6 92 12 49
2015-01-30 5 70 11 67
2015-01-31 3 48 14 41
* 2014 2461 21938 4588 110
December 2014 215 2107 549 52
November 2014 197 1812 286 67
2014-11-01 4 43 6 44
2014-11-02 13 58 5 52
2014-11-03 9 76 13 53
2014-11-04 3 53 8 59
2014-11-05 5 64 16 52
2014-11-06 5 42 9 44
2014-11-07 8 59 14 51
2014-11-08 8 49 5 52
2014-11-09 9 79 12 56
2014-11-10 8 84 4 67
2014-11-11 6 76 11 47
2014-11-12 12 67 8 53
2014-11-13 2 63 10 44
2014-11-14 8 55 4 49
2014-11-15 2 48 7 43
2014-11-16 6 47 11 52
2014-11-17 6 72 18 54
2014-11-18 9 81 21 55
2014-11-19 13 84 17 53
2014-11-20 9 86 10 52
2014-11-21 6 63 7 46
2014-11-22 9 78 8 50
2014-11-23 6 60 5 45
2014-11-24 7 57 8 48
2014-11-25 1 55 10 44
2014-11-26 5 63 9 44
2014-11-27 3 32 10 42
2014-11-28 6 39 5 46
2014-11-29 4 54 10 39
2014-11-30 5 25 5 44
October 2014 172 1628 410 60
September 2014 122 1114 280 58
August 2014 75 619 251 50
July 2014 63 577 318 56
June 2014 654 2289 733 61
May 2014 158 1011 490 49
April 2014 130 2321 281 57
March 2014 188 2594 282 110
February 2014 229 2915 334 78
January 2014 258 2951 374 86
* 2013 1171 11341 1091 165
* 2012 1863 11381 918 70
* 2011 741 7884 698 76
* 2010 444 2717 284 98
* 2009 217 1823 163 20
December 2009 15 142 18 11
November 2009 21 148 25 20
October 2009 15 104 19 11
2009-10-01 0 2 0 5
2009-10-02 1 5 1 7
2009-10-03 0 3 1 7
2009-10-04 2 8 0 11
2009-10-05 0 14 0 7
2009-10-06 0 0 0 8
2009-10-07 1 1 1 6
2009-10-08 0 0 0 10
2009-10-09 0 1 2 10
2009-10-10 0 2 0 8
2009-10-11 0 1 1 6
2009-10-12 1 9 0 7
2009-10-13 2 7 2 9
2009-10-14 1 7 2 8
2009-10-15 1 7 1 7
2009-10-16 0 6 0 5
2009-10-17 1 2 1 5
2009-10-18 1 4 0 7
2009-10-19 0 0 0 8
2009-10-20 0 2 1 6
2009-10-21 0 4 0 7
2009-10-22 0 2 0 6
2009-10-23 0 0 1 5
2009-10-24 0 0 0 6
2009-10-25 1 2 0 11
2009-10-26 2 4 1 9
2009-10-27 1 5 1 8
2009-10-28 0 1 2 10
2009-10-29 0 1 1 7
2009-10-30 0 3 0 6
2009-10-31 0 1 0 6
September 2009 10 67 11 10
August 2009 6 37 9 11
July 2009 4 18 1 7
June 2009 6 28 1 8
May 2009 10 36 4 14
April 2009 12 72 7 11
March 2009 37 343 14 16
February 2009 24 324 21 16
January 2009 57 504 33 18
* 2008 119 553 148 28